177  
ASUS43 KDMX 222206  
RWRIA  
 
WEATHER ROUNDUP FOR IOWA  
NATIONAL WEATHER SERVICE DES MOINES IA  
400 PM CST WED JAN 22 2020  
 
NOTE: "FAIR" INDICATES FEW OR NO CLOUDS BELOW 12,000 FEET WITH NO  
SIGNIFICANT WEATHER AND/OR S TO VISIBILITY
.  
 
* - THESE STATIONS ARE NOT NWS STATIONS...THUS NOT UNDER NWS  
QUALITY CONTROL. THEY ALSO DO NOT REPORT WEATHER SUCH  
AS PRECIPITATION OR FOG.
 
 
IAZ001>003-012>014-020>022-031>034-043>046-222300-  
NORTHWEST IOWA  
 
CITY SKY/WX TMP DP RH WIND PRES REMARKS
 
CARROLL * MIX PCPN 32 32 100 S10 29.83S VSB 3/4 WCI 24  
CHEROKEE * CLOUDY 33 33 99 S8 29.81F WCI 26  
DENISON * LGT SNOW 34 34 100 S9 29.84R VSB 1 WCI 26  
LE MARS * CLOUDY 34 34 100 S13 29.79S WCI 25  
SHELDON * CLOUDY 34 34 100 S12 29.77S WCI 25  
SIOUX CITY CLOUDY N/A N/A N/A SE9 29.80R  
SPENCER CLOUDY 35 31 85 S14 29.81S WCI 26  
STORM LAKE * MIX PCPN 32 32 100 S13 29.78S WCI 22  

 
 
IAZ055>058-069>071-079>083-090>094-222300-  
SOUTHWEST IOWA  
 
CITY SKY/WX TMP DP RH WIND PRES REMARKS
 
ATLANTIC * MOSUNNY 34 34 100 S10 29.84S FOG WCI 26  
AUDUBON * LGT SNOW 34 30 86 S8 29.85R VSB 3/4 WCI 27  
CLARINDA * MIX PCPN 34 34 100 S10 29.88S WCI 26  
COUNCIL BLFS * CLOUDY 34 34 100 S10 29.80S FOG WCI 26  
CRESTON * PTSUNNY 32 32 100 S15G21 29.86S FOG WCI 22  
HARLAN * LGT SNOW 32 32 100 S12 29.83S WCI 23  
LAMONI LGT SNOW 31 29 92 S10 29.90S VSB 1 WCI 22  
RED OAK * LGT SNOW 34 34 100 S12 29.85S WCI 25  
SHENANDOAH * MIX PCPN 34 34 100 S12 29.84S WCI 25  

 
 
IAZ047>049-059>061-072>074-084-222300-  
CENTRAL IOWA  
 
CITY SKY/WX TMP DP RH WIND PRES REMARKS
 
AMES LGT SNOW 33 31 92 MISG 29.89F FOG  
ANKENY * LGT SNOW 32 32 100 S9 29.92S VSB 3/4 WCI 24  
BOONE * CLOUDY 32 32 100 S12 29.87S FOG WCI 23  
CHARITON * SNOW 32 32 100 S16G23 29.91S VSB 1/2 WCI 21  
DES MOINES SNOW 32 30 92 S13 29.90S VSB 1/2 WCI 22  
GRINNELL* LGT SNOW 31 29 94 SE18 29.95R WCI 19  
KNOXVILLE * CLOUDY 32 32 100 S9 29.92F FOG WCI 24  
MARSHALLTOWN LGT SNOW 31 31 100 SE14 29.91F FOG WCI 21  
NEWTON * FOG 32 32 100 SE16 29.92S VSB 1/4 WCI 21  
PELLA * LGT SNOW 32 31 94 SE8 29.95F WCI 25  
PERRY * LGT SNOW 33 32 96 S15 29.87S WCI 23  

 
 
IAZ004>006-015-016-023>025-035-036-222300-  
NORTH CENTRAL IOWA  
 
CITY SKY/WX TMP DP RH WIND PRES REMARKS
 
ALGONA * FOG 32 32 100 S15G21 29.83S VSB 3/4 WCI 22  
CLARION * FOG 32 32 100 S16 29.87S VSB 3/4 WCI 21  
FORT DODGE * LGT SNOW 33 31 92 S8 29.86S FOG WCI 26  
MASON CITY LGT SNOW 32 30 92 S15 29.89S FOG WCI 22  
FOREST CITY * LGT SNOW 32 32 100 S14 29.86S WCI 22  
IOWA FALLS * LGT SNOW 33 29 86 SE15 29.90S WCI 23  

 
 
IAZ007>011-017>019-026>030-037>042-050>054-066-222300-  
NORTHEAST IOWA  
 
CITY SKY/WX TMP DP RH WIND PRES REMARKS
 
CEDAR RAPIDS LGT SNOW 29 26 89 SE12 29.98F FOG WCI 19  
CHARLES CITY * MIX PCPN 32 32 100 S14 29.91S WCI 22  
CLINTON * MOCLDY 31 25 78 SE12 30.06F WCI 22  
DECORAH * MIX PCPN 30 30 100 SE10G16 29.93S WCI 21  
DUBUQUE CLOUDY 29 24 82 S10 30.02S WCI 20  
MONTICELLO * MIX PCPN 30 27 86 SE9G16 30.01F WCI 22  
OELWEIN * FOG 30 30 100 SE16 29.95F VSB 3/4 WCI 19  
WATERLOO LGT SNOW 32 28 85 SE14 29.93F FOG WCI 22  

 
 
IAZ064-065-067-068-078-222300-  
EAST CENTRAL IOWA  
 
CITY SKY/WX TMP DP RH WIND PRES REMARKS
 
DAVENPORT CLOUDY 31 23 72 SE17 30.06S WCI 19  
IOWA CITY LGT SNOW 31 26 82 SE12 30.03F VSB 1 WCI 22  
MT. PLEASANT * DRIZZLE 32 28 86 SE13 30.03F WCI 22  
MUSCATINE * MOCLDY 32 25 74 SE6 30.05F WCI 26  
QUAD CITIES CLOUDY 32 23 69 SE10 30.05F WCI 24  

 
 
IAZ062-063-075>077-085>089-095>099-222300-  
SOUTHEAST IOWA  
 
CITY SKY/WX TMP DP RH WIND PRES REMARKS
 
BURLINGTON CLOUDY 33 23 66 S9 30.04F WCI 25  
FAIRFIELD * CLOUDY 30 27 86 SE15 29.99F WCI 19  
FORT MADISON * N/A 34 25 69 SE9 30.04F WCI 26  
KEOKUK * CLOUDY 34 25 69 SE9 30.04S WCI 26  
OSKALOOSA * LGT SNOW 33 32 96 SE13 29.97S WCI 23  
OTTUMWA LGT SNOW 30 27 88 SE16G24 29.96F FOG WCI 19  
WASHINGTON * MOSUNNY 30 30 100 SE18 29.99F FOG WCI 18  

 
 
ABBREVIATIONS USED IN REMARKS  
TC - TEMPERATURES IN CELSIUS  
WCI - WIND CHILL INDEX  
HX - HEAT INDEX  
VSB - VISIBILITY  

 
 
 
 
CLICK HERE TO GO TO PREVIOUS BULLETINS.

The Nexlab IA Page Main Text Page